Regional Weather Roundup
Issued by NWS

Home | Current Version | Previous Version | Graphics & Text | Print | Product List | Glossary On
Versions: 1 2 3 4 5 6 7 8 9 10 11 12 13 14 15 16 17 18 19 20 21 22 23 24 25 26 27 28 29 30 31 32 33 34 35 36 37 38 39 40 41 42 43 44 45 46 47 48 49 50
798
ASUS45 KTFX 281910
RWRMT
MONTANA REGIONAL WEATHER ROUNDUP
NATIONAL WEATHER SERVICE GREAT FALLS MT
100 PM MDT WED SEP 28 2016

NOTE: "FAIR" INDICATES FEW OR NO CLOUDS BELOW 12000 FEET WITH NO
SIGNIFICANT WEATHER AND/OR OBSTRUCTIONS TO VISIBILITY.

MTZ001>007-043-282000-
WEST OF THE DIVIDE

CITY           SKY/WX    TMP DP  RH WIND       PRES   REMARKS
KALISPELL      SUNNY     69  41  36 NE9       30.10F
MISSOULA       SUNNY     74  44  34 SE10      30.09F
BUTTE          SUNNY     70  40  33 S16       30.22F
MULLAN PASS    SUNNY     60  43  53 VRB5      30.18F
ANACONDA         N/A     73  39  29 SE8       30.17F
DEER LODGE       N/A     73  43  33 S6        30.19F
EUREKA           N/A     66  39  37 CALM      30.12F
HAMILTON         N/A     70  43  37 CALM      30.10F
LIBBY            N/A     66  43  42 CALM      30.08F
PLAINS           N/A     73  45  36 CALM      30.07F
RONAN            N/A     70  44  38 N6        30.14S
$$

MTZ008-052>055-282000-
SOUTHWEST MONTANA

CITY           SKY/WX    TMP DP  RH WIND       PRES   REMARKS
BOZEMAN        SUNNY     64  47  53 VRB6      30.23F
DILLON         SUNNY     65  41  41 CALM      30.23F
W YELLOWSTONE  SUNNY     66  36  32 SW3       30.32F
ENNIS          SUNNY     64  41  42 VRB5      30.29F
THREE FORKS      N/A     66  59  78 SW1       30.20F
TWIN BRIDGES     N/A     66  42  41 N5        30.19F
$$

MTZ009-010-012-014-046-048-049-054-282000-
EAST SLOPES AND CENTRAL MONTANA

CITY           SKY/WX    TMP DP  RH WIND       PRES   REMARKS
CUT BANK       SUNNY     57  41  55 SE13      30.24F
GREAT FALLS    SUNNY     59  41  51 VRB5      30.24F
MALMSTROM AFB  SUNNY     57  43  57 NE2       30.24F
HELENA         SUNNY     64  42  44 NE5       30.21F
AUGUSTA        MOCLDY    56  41  57 SE6       30.24F
BOWMANS CRNR     N/A     55  41  59 E2        30.22F
CHOTEAU          N/A     57  39  51 SE5       30.25F
CONRAD           N/A     58  47  66 E3        30.24F
FAIRFIELD        N/A     56  39  53 SE2       30.23F
POWER            N/A     57  41  55 E5        30.23F
RAYNESFORD       N/A     60  46  60 E14G21    30.23F
$$

MTZ011-013-016-021-045-047-050-051-282000-
NORTH CENTRAL MONTANA

CITY           SKY/WX    TMP DP  RH WIND       PRES   REMARKS
HAVRE          SUNNY     63  46  54 E18       30.25F
LEWISTOWN      SUNNY     64  46  52 E10       30.25F
N BAR RANCH      N/A     63  46  55 E10       30.30F
CHINOOK          N/A     61  46  59 E9        30.27F
DENTON           N/A     63  47  56 NE12      30.21F
GEYSER         MOCLDY    56  41  57 SE6       30.24F
GRASS RANGE      N/A     61  47  59 E12       30.23F
JUDITH GAP       N/A     61  46  58 S18G24    30.27F
ROY              N/A     61  48  62 MISG      30.25F
STANFORD         N/A     63  48  57 SE14G20   30.24F
WINIFRED         N/A     61  46  58 MISG      30.24F
$$

MTZ017>020-022>027-061-062-282000-
NORTHEAST MONTANA

CITY           SKY/WX    TMP DP  RH WIND       PRES   REMARKS
GLASGOW        SUNNY     68  46  45 VRB3      30.26F
JORDAN           N/A     66  48  52 SE6       30.26F
SIDNEY         SUNNY     65  52  62 E5        30.26S
WOLF POINT     SUNNY     69  49  48 SE5       30.26F
PLENTYWOOD       N/A     66  48  52 NE6       30.26S
POPLAR           N/A     66  48  52 NE5       30.26F
SCOBEY           N/A     67  45  45 N7        30.24S
$$

MTZ028>42-056>058-282000-
SOUTHCENTRAL AND SOUTHEAST MONTANA

CITY           SKY/WX    TMP DP  RH WIND       PRES   REMARKS
BAKER          SUNNY     71  52  50 CALM      30.27S
BILLINGS       SUNNY     62  47  57 E6        30.27F
LIVINGSTON     SUNNY     63  46  54 E12       30.25F
MILES CITY     SUNNY     67  50  54 CALM      30.26F
BIG TIMBER     SUNNY     63  48  59 E8        30.29F
EKALAKA          N/A     75  51  42 NW6       30.23F
FORSYTH          N/A     64  52  63 CALM      30.26F
HARLOWTON        N/A     59  46  61 E9        30.28F
LAUREL           N/A     63  47  55 NE1       30.23F
ROUNDUP          N/A     61  44  53 NE5       30.16F
$$

REGIONAL REPORTS...DAKOTAS

CITY           SKY/WX    TMP DP  RH WIND       PRES   REMARKS
WILLISTON      SUNNY     68  50  52 CALM      30.26S
MINOT          SUNNY     67  38  34 SE10      30.28S
DICKINSON      SUNNY     71  46  40 SE9       30.25S
BEACH            N/A     68  52  56 NE5       30.29F
CROSBY           N/A     66  46  48 E6        30.29S
WATFORD CITY     N/A     68  50  52 E5        30.26S
BISMARCK       SUNNY     67  40  37 VRB3      30.29S
GRAND FORKS    CLOUDY    59  46  62 N6        30.32R
FARGO          CLOUDY    62  47  57 VRB5      30.30S
BUFFALO SD       N/A     78  49  35 E7        30.19S
RAPID CITY     SUNNY     79  47  32 NE8       30.26S
$$

REGIONAL REPORTS...WYOMING/IDAHO/WASHINGTON

CITY           SKY/WX    TMP DP  RH WIND       PRES   REMARKS
GILLETTE       SUNNY     76  44  32 E12       30.30F
SHERIDAN       SUNNY     74  48  39 NW6       30.26F
CODY           SUNNY     66  46  48 N3        30.30F
YELLOWSTONE LA   N/A     63  39  41 VRB3      30.41F
IDAHO FALLS    SUNNY     73  45  36 N5        30.20F
SALMON         SUNNY     66  43  42 CALM      30.15F
BOISE          SUNNY     83  42  23 S10       30.01F
SPOKANE        MOSUNNY   70  43  37 NE7       30.02F
$$

REGIONAL REPORTS...ALBERTA

CITY           SKY/WX    TMP DP  RH WIND       PRES   REMARKS
EDMONTON       PTSUNNY   54  32  43 SE12      30.30F
CALGARY        PTSUNNY   52  34  50 S18G24    30.24F
LETHBRIDGE     PTSUNNY   59  41  51 VRB7      30.24F
MEDICINE HAT   PTSUNNY   63  41  45 E15G22    30.27F
WATERTON GATE    N/A     55  36  47 N6          N/A
CARDSTON         N/A     57  39  51 SE7         N/A
MILK RIVER       N/A     59  39  47 E6          N/A
ONEFOUR          N/A     61  43  51 SE14G21     N/A
$$

REGIONAL REPORTS...SASKATCHEWAN

CITY           SKY/WX    TMP DP  RH WIND       PRES   REMARKS
SWIFT CURRENT  MOSUNNY   59  36  41 E17G29    30.30F
REGINA         PTSUNNY   61  45  55 NE14      30.29F
SASKATOON      PTSUNNY   59  36  41 E7        30.37F
CYPRESS HILLS    N/A     57  32  38 SE9G18      N/A
VAL MARIE        N/A     64  41  42 E10         N/A
ROCKGLEN         N/A     61  46  59 NE8         N/A
ASSINIBOIA       N/A     54  34  47 E5          N/A
$$




USA.gov is the U.S. government's official web portal to all federal, state and local government web resources and services.